2012-006D
1 38080U 12006D   12045.34576499 -.00000171  00000-0  00000+0 0    43
2 38080  69.4894 236.7650 0779813  43.1749 322.8467 14.05390632   121
2012-006E
1 38081U 12006E   12045.34576237 -.00000170  00000-0  00000+0 0    43
2 38081  69.4853 236.7588 0779430  43.1167 322.8527 14.05284925   120
2012-006F
1 38082U 12006F   12045.34582563 -.00000170  00000-0  00000+0 0    32
2 38082  69.4894 236.7668 0779831  43.1118 322.8601 14.05192436   124
2012-006G
1 38083U 12006G   12045.34579010 -.00000171  00000-0  00000+0 0    48
2 38083  69.4868 236.7618 0780170  43.1324 322.8589 14.05257909   120
2012-006H
1 38084U 12006H   12044.91874586 -.00000170  00000-0  00000+0 0    24
2 38084  69.4837 237.7229 0780017  43.6486 322.3757 14.05172992    63
2012-006J
1 38085U 12006J   12044.91875341 -.00000172  00000-0  00000+0 0    27
2 38085  69.4881 237.7235 0782167  43.6065 322.3957 14.05159457    64
